Temp
17 17 17 17 18 18 17 17 17 18 18 18 19 19 19 18 18 19 18 18 17 17 17 17 17 16 16 16 17 17 17 17 17
17 17 17 17 17 18 18 17 18 18 18 18 18 19 19 18 18 18 18 17 17 16 16 16 17 16 15 16 16 17 16 16 16
16 17 17 17 17 17 18 18 18 18 18 18 18 18 18 18 18 18 18 17 17 16 16 16 15 15 15 15 15 15 16 16 15
16 17 17 17 17 17 17 18 18 18 18 18 18 18 18 18 18 18 18 17 16 16 15 15 15 14 14 14 14 14 14 14 14
17 17 17 17 16 17 17 18 18 18 18 18 18 18 18 18 18 18 18 16 16 16 15 15 14 14 14 13 13 13 13 13 14
18 17 16 17 17 17 17 18 18 18 19 19 19 19 18 18 18 18 17 16 16 16 15 14 14 13 13 13 13 13 13 13 13
18 17 17 17 17 17 17 18 18 18 18 19 19 19 19 18 18 18 16 16 15 15 15 14 13 13 13 13 12 12 12 12 12
18 18 17 17 17 17 17 18 18 18 18 18 18 18 18 18 18 17 17 16 15 14 14 13 13 13 12 12 12 12 12 11 11
18 18 18 18 18 17 17 17 18 18 18 18 18 18 18 18 18 17 16 15 14 14 14 13 13 12 12 12 12 11 11 11 11
18 19 19 18 18 18 18 18 18 18 18 18 18 18 18 18 17 17 16 16 15 14 14 13 13 12 12 12 11 11 11 11 11
19 19 19 19 19 18 18 18 18 18 18 18 18 18 18 18 16 16 16 15 15 14 14 13 13 12 12 11 11 11 11 10 10
19 19 19 19 19 19 18 18 18 18 18 18 18 18 18 17 17 16 16 15 14 14 14 13 13 12 12 11 11 11 10 10 10
20 20 20 19 19 19 19 18 18 18 18 18 18 17 17 17 17 16 15 15 15 14 13 13 13 13 12 12 11 11 10 10 10
20 20 20 19 19 19 19 19 18 18 18 18 18 17 17 17 17 16 15 15 15 14 13 13 12 12 12 12 12 11 10 10 10
20 20 20 20 19 19 19 19 19 18 18 18 17 17 17 17 16 16 16 15 14 14 14 13 12 12 12 12 12 11 10 10 10
20 20 20 19 19 19 18 18 18 18 18 17 16 16 16 16 16 16 15 15 14 14 14 13 13 12 11 11 11 11 10 10 10
20 19 20 19 19 19 18 18 17 17 17 16 13 11 13 15 15 15 15 15 14 14 13 13 13 12 12 11 10 10 10 10 10
20 20 19 19 19 19 19 18 17 16 16 16 15 9 10 10 14 15 15 15 14 14 14 13 12 12 12 11 11 11 10 9 9
19 19 19 19 18 18 18 18 17 16 14 14 16 16 15 10 11 13 13 14 14 14 13 13 12 12 12 11 11 10 9 9 9
19 19 18 19 18 18 17 18 15 15 15 14 14 13 13 13 10 9 10 12 13 13 13 13 12 11 11 11 10 10 9 7 8
Height
843 843 844 844 845 846 847 848 848 849 850 850 851 851 851 851 851 852 852 853 853 853 852 852 852 852 851 850 850 850 851 851 849
843 844 845 846 846 847 848 848 849 850 851 851 852 853 852 851 852 853 853 854 854 854 854 854 854 854 853 853 852 853 853 852 851
843 844 846 846 847 848 848 849 849 850 851 852 852 853 853 853 852 853 853 854 856 855 855 855 854 855 854 854 854 855 854 854 853
843 844 846 847 848 849 850 850 850 850 851 852 853 853 854 854 853 854 854 854 856 855 856 855 855 855 855 855 855 855 856 855 855
843 844 845 847 848 849 849 850 851 851 851 851 853 853 854 854 853 854 855 855 856 856 856 856 855 854 855 855 855 856 856 856 856
843 844 845 847 848 848 849 850 851 851 851 852 853 853 853 853 853 853 854 855 856 857 858 857 856 855 855 855 856 856 857 855 857
843 845 845 846 846 847 848 849 849 850 850 851 852 852 852 852 852 853 854 855 855 857 857 857 856 856 856 855 855 857 857 857 857
841 843 845 846 846 846 847 848 848 848 849 850 851 851 852 852 850 851 852 853 855 854 855 856 857 856 856 857 857 857 858 858 857
840 841 842 843 845 846 846 847 847 847 847 848 848 849 850 850 851 851 852 853 854 855 855 855 856 856 856 856 857 857 859 858 858
838 839 841 842 842 844 846 846 846 847 848 848 847 848 848 847 848 848 848 850 851 852 856 855 855 855 855 856 856 857 858 858 858
836 837 838 839 841 841 842 843 845 845 846 846 846 846 848 847 846 847 847 848 849 850 852 854 853 854 854 854 855 856 858 857 857
832 834 835 836 838 839 840 841 842 842 844 844 845 846 846 847 846 845 846 846 847 848 849 852 852 852 853 854 854 854 855 856 856
829 830 831 833 834 836 838 839 840 839 840 841 843 843 844 845 844 844 844 844 845 846 847 848 849 850 851 852 853 853 853 854 854
824 825 827 829 830 831 833 834 835 835 836 837 838 839 840 840 841 840 840 841 841 842 843 845 847 847 849 850 851 852 852 852 853
820 820 822 824 825 825 827 828 829 830 832 833 834 836 837 837 837 836 836 836 837 838 840 842 843 844 846 847 849 850 850 850 851
815 815 817 818 818 819 821 822 823 824 827 831 832 832 832 832 831 832 832 831 831 833 835 837 838 840 842 843 845 846 847 848 849
810 810 810 811 812 813 815 816 817 818 821 825 829 833 830 826 824 826 826 827 828 828 829 831 833 836 837 839 841 842 844 845 846
803 805 805 806 807 807 808 809 810 811 814 815 819 830 826 820 816 817 818 821 822 822 823 826 828 830 833 835 838 839 840 842 844
797 798 799 799 800 800 801 804 804 806 807 810 810 809 810 816 815 811 811 815 817 818 819 821 823 825 825 829 833 836 838 839 841
791 792 792 792 794 794 796 796 798 800 800 802 803 804 806 807 809 811 807 809 810 813 814 815 818 819 820 822 826 830 833 838 838
Wind_Speed
14 14 14 13 12 10 11 13 12 12 13 14 15 13 13 10 11 9 7 11 11 14 15 17 18 17 16 18 22 19 8 7 9
12 12 11 10 10 9 11 11 11 10 11 12 12 10 9 10 9 7 6 11 11 11 12 12 8 11 13 13 14 14 15 16 19
12 11 10 9 9 10 11 10 10 9 9 10 11 8 7 10 5 4 6 9 8 9 10 11 11 10 11 12 11 10 9 8 12
12 12 11 11 11 10 9 9 8 8 9 10 11 9 10 7 5 5 5 7 9 11 11 11 12 11 11 12 12 11 9 11 11
12 13 12 12 12 10 8 7 7 8 9 10 11 9 6 6 4 2 1 7 12 12 9 10 10 11 11 11 12 11 11 13 13
12 13 12 12 11 10 8 7 7 7 7 8 11 8 6 4 3 1 5 13 12 8 7 8 9 10 11 11 12 11 11 13 13
11 12 11 12 11 10 9 8 8 8 7 7 9 7 6 6 5 4 14 14 11 7 6 6 9 10 10 11 11 11 11 13 13
13 13 14 14 13 13 11 10 10 9 8 7 8 7 6 7 8 10 15 13 10 9 8 8 9 10 10 10 10 10 11 11 12
18 15 14 15 15 14 12 12 11 11 9 10 9 8 11 8 12 12 12 12 11 10 9 9 10 10 10 10 10 11 10 10 11
23 18 14 14 15 15 14 11 10 12 12 13 11 11 11 10 14 15 14 14 13 11 9 10 11 10 10 10 10 10 9 9 10
24 19 18 17 15 14 17 16 14 16 15 15 14 13 12 13 15 16 16 15 15 13 12 12 12 11 10 10 10 10 9 9 9
25 23 21 20 20 15 20 21 19 17 17 17 16 15 15 16 15 17 17 17 17 16 14 13 13 13 12 11 10 10 9 8 8
23 26 27 26 26 24 21 18 22 21 21 20 18 17 17 18 17 17 18 17 18 18 16 17 16 15 14 13 11 10 10 8 8
30 27 25 26 27 30 28 26 23 24 24 22 20 20 20 20 21 20 20 19 19 19 20 20 20 18 16 15 13 12 10 10 7
30 33 32 29 28 29 32 32 29 28 27 23 22 21 22 22 23 24 23 22 22 20 21 23 24 22 19 16 15 13 11 10 9
31 34 34 34 33 34 34 33 34 31 29 20 19 19 22 25 27 26 27 27 26 24 24 23 26 25 23 19 17 15 13 11 10
28 33 38 37 38 35 35 36 33 33 30 16 5 2 10 26 29 29 29 31 29 29 29 27 26 27 27 24 20 17 15 13 12
29 32 33 37 38 39 39 38 37 29 33 33 14 2 6 3 19 37 33 33 33 34 32 30 29 27 28 26 24 21 18 14 13
25 25 27 35 37 43 40 37 40 36 30 31 38 25 6 4 3 12 32 32 34 36 35 34 32 30 28 27 24 21 19 16 14
24 24 26 25 31 36 38 38 32 41 29 30 29 33 20 11 3 4 5 27 34 34 36 37 35 32 29 28 26 22 18 15 13
Wind_Direction
121 127 129 122 113 107 109 112 109 105 104 112 116 103 102 100 105 97 75 89 91 86 87 81 81 77 71 65 66 86 83 79 61
145 137 133 128 123 119 118 120 116 113 113 116 122 108 103 111 113 93 62 102 98 94 87 82 94 74 66 70 77 82 74 69 62
147 152 146 142 135 128 125 124 123 119 120 122 131 102 100 106 101 85 93 107 113 104 94 90 81 76 73 69 73 76 88 81 72
147 153 152 147 142 140 133 132 131 128 129 131 137 107 110 118 101 119 104 112 132 118 103 94 89 85 78 78 76 76 82 77 74
154 153 152 152 153 154 143 142 139 136 136 138 146 134 123 121 115 90 55 121 136 117 107 100 92 90 91 88 87 85 83 82 81
165 162 159 163 166 165 160 154 149 142 139 142 148 147 139 154 167 172 145 141 134 124 115 107 100 102 101 96 92 91 88 88 86
173 176 176 180 184 186 182 175 169 158 150 154 160 162 165 188 185 169 138 146 143 163 156 125 118 117 112 109 105 98 94 93 91
190 189 196 196 205 200 199 197 190 183 182 171 177 184 186 207 198 175 168 165 162 156 149 138 137 131 124 119 113 107 104 98 94
206 208 212 216 217 215 219 221 212 200 207 200 210 209 209 213 202 193 195 188 165 159 155 152 152 144 135 130 124 119 114 104 100
213 214 223 223 220 221 226 223 216 216 216 224 215 214 205 217 205 202 202 200 186 173 174 166 162 158 148 142 136 130 127 114 107
217 219 224 225 218 222 226 228 224 227 230 226 222 220 214 228 208 204 205 211 208 189 183 181 175 169 161 155 151 143 140 130 118
220 221 230 228 217 220 231 228 223 225 234 230 230 228 219 228 226 212 212 215 217 210 192 192 185 181 175 170 165 160 154 146 135
229 232 232 233 225 231 230 228 226 230 231 226 232 229 228 224 230 223 219 224 221 217 206 197 195 192 189 185 183 177 170 164 152
232 235 234 235 236 233 229 231 232 229 225 224 227 229 229 225 225 229 227 223 226 223 215 205 201 196 196 196 191 189 183 178 175
235 234 235 239 239 235 226 228 233 236 231 225 230 237 231 230 225 226 230 225 222 225 222 214 211 208 199 200 196 194 189 189 189
240 236 236 234 238 239 231 228 233 233 230 218 229 235 231 232 233 231 226 226 225 223 221 224 222 218 211 203 201 202 202 208 206
241 240 238 236 236 236 236 231 229 232 217 200 155 250 251 237 232 230 228 227 226 225 223 222 224 224 221 218 212 212 212 213 209
262 251 246 240 241 238 238 237 229 221 214 211 190 146 226 218 230 231 229 228 224 225 228 225 223 226 226 226 228 227 221 215 214
263 263 259 253 248 242 239 240 237 220 212 210 216 223 178 193 283 232 230 229 230 226 226 229 227 228 224 225 228 230 227 218 213
266 263 260 260 254 255 249 241 238 231 224 213 221 225 224 221 164 243 241 229 231 233 229 229 230 227 227 222 224 227 232 229 217